Regional Weather Roundup
Issued by NWS New Orleans/Baton Rouge, LA

Current Version | Previous Version | Text Only | Print | Product List | Glossary On
Versions: 1 2 3 4 5 6 7 8 9 10 11 12 13 14 15 16 17 18 19 20 21 22 23 24 25 26 27 28 29 30 31 32 33 34 35 36 37 38 39 40 41 42 43 44 45 46 47 48 49 50
000
ASUS44 KLIX 271012
RWRLIX
NEW ORLEANS REGIONAL WEATHER ROUNDUP
NATIONAL WEATHER SERVICE NEW ORLEANS LA
500 AM CDT MON APR 27 2015

NOTE: "FAIR" INDICATES FEW OR NO CLOUDS BELOW 12,000 FEET WITH NO
      SIGNIFICANT WEATHER AND/OR OBSTRUCTIONS TO VISIBILITY.
      SKY/WX - SKY CONDITION AND SIGNIFICANT WEATHER.
      TMP - AIR TEMPERATURE.     DP    - DEWPOINT TEMPERATURE.
      RH  - RELATIVE HUMIDITY.   PRES  - PRESSURE.
      HI  - HEAT INDEX.          WCI   - WIND CHILL INDEX.

*  THESE STATIONS ARE NOT NWS OR FAA STATIONS AND ARE NOT UNDER
   NWS QUALITY CONTROL.

LAZ038-040-048-061>063-065>067-069-271100-
SOUTHEAST LOUISIANA

CITY           SKY/WX    TMP DP  RH WIND       PRES   REMARKS
N.O. AUDUBON     N/A     76  76  99 MISG        N/A
N.O. INTL ARPT CLOUDY    75  71  87 NE5       29.71R
N.O. LAKEFRONT CLOUDY    78  74  87 E7        29.72R FOG
SLIDELL        FOG       70  70 100 N6        29.72R VSB 1/4
BATON ROUGE    MOCLDY    71  69  93 NE6       29.69F FOG
BOOTHVILLE     FOG       73  73 100 NE6       29.70R VSB 1/2
BELLE CHASSE   CLOUDY    73  72  96 NE6       29.70R FOG
BOGALUSA*        N/A     68  63  83 NE5       29.76R
GALLIANO*      CLOUDY    76  74  92 CALM      29.68S FOG
NEW ROADS*       N/A     69  68  97 CALM      29.69F FOG
GONZALES*      CLOUDY    72  72 100 CALM      29.70R FOG
HAMMOND*       MOCLDY    72  68  88 NE5       29.73F FOG
HOUMA*         CLOUDY    74  73  98 NE6       29.69R FOG
PORT FOURCHON* SUNNY     77  73  88 E10       29.71R FOG

$$

MSZ070-080>082-271100-
SOUTHERN MISSISSIPPI

CITY           SKY/WX    TMP DP  RH WIND       PRES   REMARKS
MCCOMB         MOCLDY    67  63  87 NE7       29.74F
GULFPORT       CLOUDY    71  70  96 N9        29.73R FOG
BILOXI         CLOUDY    72  72 100 NE5       29.74
PASCAGOULA     CLOUDY    70  70 100 N5        29.74R

$$

COASTAL OBSERVATIONS
LAKE AND NEARSHORE STATIONS

STATION/POSITION TIME  TEMP    WIND        PRES    WAVE
                       AIR SEA DIR/SP/G            HT/PER
                 (UTC) (F)     (DEG/KT/KT) (MB)    (FT/S)
PASCAGOULA       0900   73      CALM  /  1 1005.8
WAVELAND YACHT   0900   74 75   60/  5/  6 1006.0
GRAND ISLE       0900   77 78   90/  7/ 11 1004.5
SOUTHWEST PASS   0900   73 66   60/ 13/ 14 1005.0
NEW CANAL        0900   74      80/  3/  4 1005.9
SHELL BEACH      0900   76 78  100/  6/  7 1005.1

OFFSHORE STATIONS

STATION/POSITION TIME  TEMP    WIND        PRES    WAVE
                       AIR SEA DIR/SP/G            HT/PER
                 (UTC) (F)     (DEG/KT/KT) (MB)    (FT/S)
64 S DAUPHIN ISL 0950   77 77   70/  8/ 10 1006.4    2/ 8

$$



USA.gov is the U.S. government's official web portal to all federal, state and local government web resources and services.